Showing default

COSMOS 2575, 58929

Orbit data source: Space-Track

COSMOS 2575, 58929 is a payload satellite owned by MO RF (CIS) in SSO that was launched on Fri, 09 Feb 2024 UTC via a SOYUZ-2-1V launch vehicle from the Plesetsk Missile And Space Complex (PKMTR). Payload-class satellites include a variety of spacecraft equipped with specific instruments for various scientific and technological missions. These include communications satellites like Starlink; space stations such as the ISS; scientific satellites like the Hubble; Earth observation satellites from companies like Planet Labs, Umbra, and HawkEye 360; GPS; miniature CubeSats for education and research; and military/defense satellites.

Loading next visibility...
Identifier
58929, 2024-026A
Orbit
SSO
Country
Flag of CISCIS
Related business
Manufacturer
VNIIEM
Mission
Operational spacecraft
Bus & Motor
EMKA, Unknown motor
Mass
520 kg wet, ~500 kg dry
Launch date (UTC)
2024-02-09 (2 years ago)
Launch vehicle
SOYUZ-2-1V
Launch site
Plesetsk Missile And Space Complex (PKMTR)
Object type
Payload
Rocket body
Debris
Shape & HBR
Unknown
Radar Cross Section
Large (>1 m²)

Expand to show TLE details & history
Last TLE update: 22 hours ago

TLE from 22 hours ago
0 COSMOS 2575
1 58929U 24026A   25260.25202544  .00031247  00000-0  20713-3 0  9999
2 58929  96.6557 151.0697 0002408  80.4344 279.7195 15.75452709 92667
Epoch: 2025-09-17T06:02Z
TLE epoch observation values (Epoch: 2025-09-17T06:02:54.998Z)
Latitude
-0°
Longitude
63.9099°
Altitude
346.256 km
Speed
7.701 km/s
True Right ascension
10h 04m 16s
True Declination
0° 00' 00"
Sunlit
Object was in daylight at epoch
Visualization orbit readout
Latitude
Unknown
Longitude
Unknown
Altitude
Unknown
Speed
Unknown
Apparent Right ascension
Unknown
Apparent Declination
Unknown
Sunlit
N/A
Visualization observer readout
Local Sidereal Time
21:07:19
Azimuth
Unknown
Elevation
Unknown
Doppler factor
Unknown
Orbital elements
Apogee altitude
341.822 km
Perigee altitude
338.587 km
Semi-major axis
6,718.341 km
Eccentricity
0.00024
Inclination
96.6557°
RAAN
151.0697°
Arg. of periapsis
80.4344°
True anomaly
279.6923°
Mean anomaly
279.7195°
Eccentric anomaly
279.7059°
Mean motion
3.9414 °/min
Orbital period
91.34 mins
BSTAR
0.00020713
Loading maneuver chart data...
Computing Atmospheric mass density...
Loading historical data...
Loading historical data...
Loading historical data...
Loading historical data...
Loading historical data...
Loading historical data...
Loading historical data...
Other satellites on launch #26 in the year 2024 (2024-02-09 UTC)

Documentation

Showing up to 5 results
|